When you browse on this site, cookies collect data to enhance your experience and personalize the content and advertising you see.
Visit our Privacy Policy to learn more. By continuing to use the site, you agree to this use of cookies and data.
  • In Spain
  • List of Countries
  • For 7 days
  • Water Temperature
  • Satellite Maps
  • Weather Map
  • Weather Widgets
  • user-avatar
    Login

    Hourly Weather Luanda

    Today, 11 December, Tuesday

    Time Temperature Precipitation Wind Pressure Humidity
    00:00 +26°C° 0 mm 3 mps 756 mmHg 84%
    01:00 +26°C° 0 mm 2 mps 756 mmHg 85%
    02:00 +26°C° 0 mm 2 mps 756 mmHg 86%
    03:00 +26°C° 0 mm 2 mps 755 mmHg 87%
    04:00 +25°C° 0 mm 2 mps 755 mmHg 88%
    05:00 +26°C° 0 mm 2 mps 755 mmHg 86%
    06:00 +26°C° 0 mm 2 mps 756 mmHg 85%
    07:00 +27°C° 0 mm 2 mps 756 mmHg 83%
    08:00 +28°C° 0 mm 2 mps 756 mmHg 77%
    09:00 +29°C° 0 mm 1 mps 756 mmHg 72%
    10:00 +30°C° 0 mm 1 mps 757 mmHg 67%
    11:00 +31°C° 0 mm 2 mps 756 mmHg 64%
    12:00 +32°C° 0 mm 2 mps 755 mmHg 60%
    13:00 +33°C° 0 mm 3 mps 755 mmHg 57%
    14:00 +34°C° 0 mm 3 mps 754 mmHg 56%
    15:00 +34°C° 0 mm 4 mps 754 mmHg 56%
    16:00 +34°C° 0 mm 5 mps 753 mmHg 55%
    17:00 +32°C° 0 mm 4 mps 753 mmHg 62%
    18:00 +30°C° 0 mm 4 mps 754 mmHg 69%
    19:00 +28°C° 0 mm 4 mps 754 mmHg 76%
    20:00 +28°C° 0 mm 4 mps 755 mmHg 77%
    21:00 +27°C° 0 mm 4 mps 755 mmHg 79%
    22:00 +27°C° 0 mm 3 mps 756 mmHg 80%
    23:00 +27°C° 0 mm 3 mps 755 mmHg 81%

    Tomorrow, 12 December, Wednesday

    Time Temperature Precipitation Wind Pressure Humidity
    00:00 +27°C° 0 mm 3 mps 755 mmHg 82%
    01:00 +26°C° 0 mm 3 mps 755 mmHg 83%
    02:00 +26°C° 0 mm 3 mps 755 mmHg 84%
    03:00 +26°C° 0 mm 3 mps 755 mmHg 85%
    04:00 +26°C° 0 mm 2 mps 754 mmHg 86%
    05:00 +26°C° 0 mm 2 mps 755 mmHg 85%
    06:00 +26°C° 0 mm 2 mps 755 mmHg 84%
    07:00 +27°C° 0 mm 2 mps 755 mmHg 82%
    08:00 +28°C° 0 mm 2 mps 756 mmHg 76%
    09:00 +29°C° 0 mm 2 mps 756 mmHg 70%
    10:00 +30°C° 0 mm 2 mps 756 mmHg 64%
    11:00 +33°C° 0 mm 3 mps 755 mmHg 59%
    12:00 +34°C° 0 mm 3 mps 755 mmHg 53%
    13:00 +35°C° 0 mm 3 mps 754 mmHg 48%
    14:00 +35°C° 0 mm 4 mps 753 mmHg 52%
    15:00 +34°C° 0 mm 5 mps 753 mmHg 55%
    16:00 +33°C° 0 mm 5 mps 752 mmHg 58%
    17:00 +32°C° 0 mm 5 mps 753 mmHg 65%
    18:00 +29°C° 0 mm 4 mps 754 mmHg 71%
    19:00 +28°C° 0 mm 4 mps 754 mmHg 77%
    20:00 +28°C° 0 mm 3 mps 755 mmHg 79%
    21:00 +27°C° 0 mm 3 mps 756 mmHg 80%
    22:00 +27°C° 0 mm 3 mps 756 mmHg 82%
    23:00 +27°C° 0 mm 3 mps 756 mmHg 83%

    Day after tomorrow, 13 December, Thursday

    Time Temperature Precipitation Wind Pressure Humidity
    00:00 +27°C° 0 mm 3 mps 755 mmHg 84%
    01:00 +26°C° 0 mm 3 mps 755 mmHg 86%
    02:00 +26°C° 0 mm 3 mps 755 mmHg 85%
    03:00 +27°C° 0 mm 2 mps 755 mmHg 84%
    04:00 +27°C° 0 mm 2 mps 754 mmHg 83%
    05:00 +27°C° 0.1 mm 2 mps 755 mmHg 82%
    06:00 +27°C° 0.1 mm 3 mps 755 mmHg 82%
    07:00 +27°C° 0.1 mm 3 mps 756 mmHg 81%
    08:00 +27°C° 0.1 mm 3 mps 756 mmHg 77%
    09:00 +28°C° 0.1 mm 3 mps 756 mmHg 73%
    10:00 +29°C° 0.1 mm 2 mps 757 mmHg 70%
    11:00 +31°C° 0 mm 2 mps 756 mmHg 62%
    12:00 +34°C° 0 mm 2 mps 755 mmHg 53%
    13:00 +36°C° 0 mm 2 mps 754 mmHg 45%
    14:00 +36°C° 0 mm 3 mps 754 mmHg 48%
    15:00 +35°C° 0 mm 3 mps 753 mmHg 50%
    16:00 +34°C° 0 mm 4 mps 752 mmHg 53%
    17:00 +32°C° 0 mm 4 mps 753 mmHg 60%
    18:00 +30°C° 0 mm 4 mps 753 mmHg 67%
    19:00 +28°C° 0 mm 3 mps 754 mmHg 73%
    20:00 +28°C° 0 mm 3 mps 755 mmHg 75%
    21:00 +27°C° 0 mm 3 mps 755 mmHg 77%
    22:00 +27°C° 0 mm 3 mps 756 mmHg 79%
    23:00 +27°C° 0 mm 3 mps 756 mmHg 81%

    14 December, Friday

    Time Temperature Precipitation Wind Pressure Humidity
    00:00 +26°C° 0 mm 3 mps 755 mmHg 82%
    01:00 +26°C° 0 mm 3 mps 755 mmHg 83%
    02:00 +26°C° 0 mm 3 mps 755 mmHg 83%
    03:00 +26°C° 0 mm 2 mps 755 mmHg 83%
    04:00 +26°C° 0 mm 2 mps 755 mmHg 83%
    05:00 +26°C° 0 mm 2 mps 755 mmHg 82%
    06:00 +27°C° 0 mm 2 mps 756 mmHg 80%
    07:00 +27°C° 0 mm 2 mps 757 mmHg 79%
    08:00 +29°C° 0 mm 2 mps 756 mmHg 71%
    09:00 +31°C° 0 mm 1 mps 756 mmHg 62%
    10:00 +33°C° 0 mm 1 mps 756 mmHg 54%
    11:00 +35°C° 0 mm 2 mps 755 mmHg 50%
    12:00 +35°C° 0 mm 3 mps 754 mmHg 47%
    13:00 +36°C° 0 mm 4 mps 753 mmHg 44%
    14:00 +35°C° 0 mm 4 mps 753 mmHg 48%
    15:00 +34°C° 0 mm 4 mps 753 mmHg 52%
    16:00 +33°C° 0 mm 5 mps 752 mmHg 57%
    17:00 +32°C° 0 mm 4 mps 753 mmHg 63%
    18:00 +29°C° 0 mm 4 mps 754 mmHg 69%
    19:00 +28°C° 0 mm 4 mps 754 mmHg 75%
    20:00 +27°C° 0 mm 3 mps 755 mmHg 77%
    21:00 +27°C° 0 mm 3 mps 755 mmHg 78%
    22:00 +27°C° 0 mm 2 mps 756 mmHg 80%
    23:00 +27°C° 0 mm 2 mps 756 mmHg 81%

    15 December, Saturday

    Time Temperature Precipitation Wind Pressure Humidity
    00:00 +27°C° 0 mm 2 mps 755 mmHg 81%
    01:00 +27°C° 0 mm 2 mps 755 mmHg 82%
    02:00 +27°C° 0 mm 2 mps 755 mmHg 81%
    03:00 +27°C° 0 mm 2 mps 755 mmHg 80%
    04:00 +27°C° 0 mm 1 mps 755 mmHg 79%
    05:00 +27°C° 0 mm 2 mps 755 mmHg 78%
    06:00 +27°C° 0 mm 2 mps 756 mmHg 78%
    07:00 +27°C° 0 mm 2 mps 756 mmHg 77%
    08:00 +28°C° 0 mm 1 mps 756 mmHg 72%
    09:00 +29°C° 0 mm 1 mps 756 mmHg 67%
    10:00 +30°C° 0 mm 1 mps 756 mmHg 62%
    11:00 +32°C° 0 mm 2 mps 755 mmHg 56%
    12:00 +34°C° 0 mm 2 mps 754 mmHg 50%
    13:00 +36°C° 0 mm 3 mps 754 mmHg 44%
    14:00 +35°C° 0 mm 4 mps 753 mmHg 47%
    15:00 +34°C° 0 mm 4 mps 753 mmHg 51%
    16:00 +34°C° 0 mm 5 mps 752 mmHg 54%
    17:00 +32°C° 0 mm 4 mps 753 mmHg 60%
    18:00 +29°C° 0 mm 4 mps 753 mmHg 66%
    19:00 +28°C° 0 mm 4 mps 754 mmHg 73%
    20:00 +28°C° 0 mm 3 mps 754 mmHg 74%
    21:00 +27°C° 0 mm 3 mps 755 mmHg 76%
    22:00 +27°C° 0 mm 2 mps 755 mmHg 78%
    23:00 +27°C° 0 mm 2 mps 755 mmHg 79%

    16 December, Sunday

    Time Temperature Precipitation Wind Pressure Humidity
    00:00 +26°C° 0 mm 1 mps 754 mmHg 80%
    01:00 +26°C° 0 mm 1 mps 754 mmHg 81%
    02:00 +26°C° 0 mm 1 mps 754 mmHg 83%
    03:00 +26°C° 0 mm 1 mps 754 mmHg 84%
    04:00 +25°C° 0 mm 1 mps 754 mmHg 85%
    05:00 +26°C° 0 mm 1 mps 755 mmHg 83%
    06:00 +26°C° 0 mm 1 mps 755 mmHg 81%
    07:00 +27°C° 0 mm 1 mps 755 mmHg 80%
    08:00 +28°C° 0 mm 1 mps 755 mmHg 71%
    09:00 +30°C° 0 mm 1 mps 755 mmHg 63%
    10:00 +32°C° 0 mm 1 mps 755 mmHg 55%
    11:00 +33°C° 0 mm 1 mps 754 mmHg 53%
    12:00 +34°C° 0 mm 2 mps 754 mmHg 50%
    13:00 +35°C° 0 mm 3 mps 753 mmHg 48%
    14:00 +34°C° 0 mm 4 mps 753 mmHg 52%
    15:00 +33°C° 0 mm 4 mps 753 mmHg 55%
    16:00 +33°C° 0 mm 5 mps 752 mmHg 59%
    17:00 +30°C° 0 mm 4 mps 753 mmHg 64%
    18:00 +29°C° 0 mm 4 mps 753 mmHg 70%
    19:00 +28°C° 0 mm 3 mps 754 mmHg 75%
    20:00 +27°C° 0 mm 3 mps 754 mmHg 77%
    21:00 +27°C° 0 mm 3 mps 755 mmHg 79%
    22:00 +27°C° 0 mm 2 mps 755 mmHg 82%
    23:00 +26°C° 0 mm 2 mps 755 mmHg 83%
    Show more